User: anonymous   Login
Location: Unspecified
(0.0000°N, 0.0000°E)
Time: 03:27:55
(UTC+00:00)
Language:

GALILEO 12 (269) - Orbit

View from above orbital plane
View from above orbital plane
View from above satellite
View from above satellite

Ground track
Ground track

The orbit data is extracted from the following two-line orbital elements,

1 41174U 15079A   17109.75088489 +.00000006 +00000-0 +00000-0 0  9992
2 41174 054.9212 193.3362 0005186 280.1862 079.8037 01.70474173007911
Epoch (UTC): 19 April 2017 18:01:16
Eccentricity: 0.0005186
inclination: 54.9212°
perigee height: 23206 km
apogee height: 23237 km
right ascension of ascending node: 193.3362°
argument of perigee: 280.1862°
revolutions per day: 1.70474173
mean anomaly at epoch: 79.8037°
orbit number at epoch: 791

The dashed part of the orbit path shows where the satellite is in the earth's shadow,  

DLR